Voltar ao catálogo

STARLINK-34710

AtivoComunicaçõesVLEO
NORAD 65365·PAYLOAD·🇺🇸 United States

Lançado Aug 28, 2025 de Cape Canaveral Space Force Station

Loading…

Próximas Passagens (próximas 24 horas)

TLE

AtualizadoSource: CelesTrak SupGP

Época: Sep 15, 2026, 02:24 UTC

1 65365C 25190Q   26258.10048611  .00051155  00000+0  15109-2 0  2588
2 65365  53.1601   6.8666 0001186  85.7336   8.5830 15.34374562    18

Acompanhe STARLINK-34710 em tempo real com AllMySat

Download on the App Store